Regional Weather Roundup
Issued by NWS

Home | Current Version | Previous Version | Text Only | Print | Product List | Glossary Off
Versions: 1 2 3 4 5 6 7 8 9 10 11 12 13 14 15 16 17 18 19 20 21 22 23 24 25 26 27 28 29 30 31 32 33 34 35 36 37 38 39 40 41 42 43 44 45 46 47 48 49 50

000
ASUS43 KDTX 210701
RWRMI
MICHIGAN HOURLY REGIONAL WEATHER ROUNDUP
NATIONAL WEATHER SERVICE DETROIT/PONTIAC MI
300 AM EDT MON AUG 21 2017

NOTE: "FAIR" INDICATES FEW OR NO CLOUDS BELOW 12,000 FEET WITH NO
SIGNIFICANT WEATHER AND/OR OBSTRUCTION TO VISIBILITY.

MIZ047>049-052>055-059>063-066>070-074>076-081>083-210800-
SOUTHEAST LOWER MICHIGAN

CITY           SKY/WX    TMP DP  RH WIND       PRES   REMARKS
ADRIAN         PTCLDY    67  66  97 CALM      30.11S
ALMA           CLOUDY    65  63  92 CALM      30.09R
ANN ARBOR      FOG       64  64 100 CALM      30.10S VSB 1
BAD AXE        CLOUDY    66  62  86 SW5       30.08S
CARO           CLOUDY    62  60  94 CALM      30.08S
DETROIT CITY   CLOUDY    73  66  78 S3        30.09R
DETROIT        CLOUDY    72  70  93 S3        30.10S
FLINT          CLOUDY    68  64  87 SW3       30.10R
GROSSE ILE     CLOUDY    72  69  89 CALM      30.08S
HILLSDALE      CLOUDY    68  64  88 CALM      30.12S
HOWELL         CLEAR     67  64  90 CALM      30.11S

CITY           SKY/WX    TMP DP  RH WIND       PRES   REMARKS
JACKSON        CLOUDY    68  64  87 CALM      30.11S
LAMBERTVILLE   PTCLDY    68  67  96 CALM      30.09S
LANSING        PTCLDY    68  63  84 S3        30.10S
LAPEER         FAIR      63  62  97 CALM      30.10R
MASON          CLOUDY    69  64  85 SE6       30.11S
MONROE         CLOUDY    69  68  97 CALM      30.09S
MT. CLEMENS    MOCLDY    68  68  98 CALM      30.08R
PONTIAC        MOCLDY    70  65  84 CALM      30.10R
PORT HOPE        N/A     68  61  78 SW3       30.05S
PORT HURON     CLOUDY    64  63  94 CALM      30.10R FOG
TRI CITIES     CLOUDY    69  64  84 S6        30.08S
MIDLAND        FAIR      63  63  97 CALM      30.06S
TROY           PTCLDY    73  64  74 CALM      30.11S
SAGINAW HB     CLOUDY    68  63  83 S6        30.07S
$$
MIZ043>046-050>051-056>058-064>065-071>073-077>080-210800-
SOUTHWEST LOWER MICHIGAN

CITY           SKY/WX    TMP DP  RH WIND       PRES   REMARKS
BATTLE CREEK   CLOUDY    71  66  84 S6        30.10F
BENTON HARBOR  CLOUDY    75  65  70 S5        30.07S
BIG RAPIDS     CLOUDY    61  58  91 CALM      30.07S
COLDWATER      CLOUDY    69  68  94 CALM      30.11S
FREMONT        FAIR      64  64 100 CALM      30.05F
HOLLAND        CLOUDY    71  66  84 CALM      30.07S
GRAND RAPIDS   CLOUDY    68  66  93 S7        30.07F
IONIA          FAIR      66  64  91 S5        30.08S
KALAMAZOO      CLOUDY    73  64  73 S3        30.09S
LUDINGTON      PTCLDY    72  64  75 SW3       30.04S
MARSHALL       MOCLDY    67  66  98 CALM      30.10S
MOUNT PLEASANT CLOUDY    68  64  85 CALM      30.06F
MUSKEGON       CLEAR     70  64  81 CALM      30.06S
SOUTH HAVEN    CLOUDY    74  67  79 CALM      30.07S
$$
MIZ016>042-210800-
NORTHERN LOWER MICHIGAN

CITY           SKY/WX    TMP DP  RH WIND       PRES   REMARKS
ALPENA         PTCLDY    69  62  78 SW6       30.03S
BEAVER ISLAND  PTCLDY    68  67  94 W7        30.01R
BELLAIRE       CLEAR     68  62  80 SW3       30.03S
CADILLAC       MOCLDY    68  62  80 SW5       30.08R
CHARLEVOIX     MOCLDY    71  65  79 SW8       30.04R
FRANKFORT      CLEAR     73  68  86 CALM      30.04S
GAYLORD        CLEAR     66  59  78 SW8       30.05S
GRAYLING       CLEAR     61  59  92 CALM      30.07S
HARBOR SPRINGS PTCLDY    70  65  83 CALM      30.01S
HOUGHTON LAKE  CLEAR     68  61  78 SW6       30.08R
MANISTEE       CLEAR     63  62  97 CALM      30.04S
OSCODA         MOCLDY    67  61  79 CALM      30.05S
PELLSTON       CLOUDY    72  65  78 W8        30.01R
ROGERS CITY    PTCLDY    69  61  75 SW8       30.02S
TRAVERSE CITY  CLEAR     71  62  73 SW6       30.02S
$$
MIZ007>008-015-210800-
EASTERN UPPER MICHIGAN

CITY           SKY/WX    TMP DP  RH WIND       PRES   REMARKS
KINROSS        CLOUDY    68  65  90 SW6       30.00R
MACKINAC ISLAN CLOUDY    70  66  87 W10G22    30.00S
NEWBERRY       CLEAR     63  62  97 SW3       29.99S FOG
S. S. MARIE    CLOUDY    68  64  87 W6        29.98R
MUNISING         N/A     67  67 100 S5        29.98S
$$
MIZ004>006-011>014-085-210800-
CENTRAL UPPER MICHIGAN

CITY           SKY/WX    TMP DP  RH WIND       PRES   REMARKS
MANISTIQUE     HAZE      61  55  81 CALM      29.99S VSB 1/4
ESCANABA       MOCLDY    70  68  93 CALM      29.99F
MENOMINEE      CLOUDY    71  67  87 CALM      30.01S
SAWYER-GWINN   MOCLDY    67  63  87 W3        30.03R
$$
MIZ001>003-009>011-084-210800-
WESTERN UPPER MICHIGAN

CITY           SKY/WX    TMP DP  RH WIND       PRES   REMARKS
IRON MOUNTAIN  CLOUDY    67  64  90 CALM      30.01S
HOUGHTON       CLEAR     59  53  80 NW7       29.99R
COPPER HARBOR    N/A     67  54  63 NW7       29.96R
IRONWOOD       CLEAR     56  55  97 SW5       30.05S
$$

ABBREVIATIONS USED IN REMARKS
   TC - TEMPERATURE IN CELSIUS
  WCI - WIND CHILL INDEX
   HX - HEAT INDEX
  VSB - VISIBILITY





USA.gov is the U.S. government's official web portal to all federal, state and local government web resources and services.